Waarnemingen

Advertentie
Mijn weer
St-Girons, Frankrijk (7627): temperatuur & dauwpunt: 22.05.2017 06:00:00 - 28.05.2017 06:00:00 (CEST)St-Girons, Frankrijk (7627): temperatuur 5cm: 22.05.2017 06:00:00 - 28.05.2017 06:00:00 (CEST)St-Girons, Frankrijk (7627): temperatuur -20cm & temperatuur -100cm: 22.05.2017 06:00:00 - 28.05.2017 06:00:00 (CEST)St-Girons, Frankrijk (7627): windsnelheid & windstoten: 22.05.2017 06:00:00 - 28.05.2017 06:00:00 (CEST)St-Girons, Frankrijk (7627): windrichting: 22.05.2017 06:00:00 - 28.05.2017 06:00:00 (CEST)St-Girons, Frankrijk (7627): luchtdruk: 22.05.2017 06:00:00 - 28.05.2017 06:00:00 (CEST)St-Girons, Frankrijk (7627): zicht: 22.05.2017 06:00:00 - 28.05.2017 06:00:00 (CEST)St-Girons, Frankrijk (7627): Zonneschijnduur: 22.05.2017 06:00:00 - 28.05.2017 06:00:00 (CEST)St-Girons, Frankrijk (7627): neerslag: 22.05.2017 06:00:00 - 28.05.2017 06:00:00 (CEST)
Datum & Tijd tt [°C] td [°C] tt 5cm [°C] tt -20cm [°C] tt -100cm [°C] ff [km/u] ff [kn] fx [km/u] fx [kn] dd ppp [hPa] vv [km] sd [min] rr [mm]
28.05.2017 06:00:00 15,7 13,0 10,7 18,8 15,1 4 2 25 14 Z 1014,7 20 0 0,0
28.05.2017 05:00:00 16,8 12,7 13,5 18,8 15,1 6 3 29 16 ZZO 1014,6 20 0 0,0
28.05.2017 04:00:00 18,6 13,9 15,8 18,9 15,1 14 8 27 15 OZO 1014,3 20 0 0,0
28.05.2017 03:00:00 18,4 14,1 15,6 19,0 15,1 11 6 27 14 OZO 1014,7 20 0 0,0
28.05.2017 02:00:00 18,8 15,1 15,9 19,0 15,1 12 7 21 12 OZO 1015,2 20 0 0,0
28.05.2017 01:00:00 18,3 15,4 15,9 19,1 15,1 11 6 20 11 OZO 1015,8 20 0 0,0
28.05.2017 00:00:00 18,8 15,5 14,4 19,0 15,1 9 5 19 10 OZO 1016,1 20 0 0,0
27.05.2017 23:00:00 19,2 15,9 14,4 19,0 15,1 4 2 10 6 OZO 1016,1 20 0 0,0
27.05.2017 22:00:00 20,5 16,3 16,1 18,9 15,1 5 3 11 6 ZO 1015,4 20 0 0,0
27.05.2017 21:00:00 22,4 17,1 19,3 18,8 15,0 6 4 14 8 OZO 1014,7 20 13 0,8
27.05.2017 20:00:00 25,7 17,6 26,6 18,5 15,0 6 3 15 8 O 1013,7 20 30 0,0
27.05.2017 19:00:00 26,9 17,7 29,5 18,2 15,0 9 5 21 11 O 1013,3 19 45 0,0
27.05.2017 18:00:00 27,5 18,2 30,7 18,3 15,0 10 5 20 11 NO 1013,3 20 35 0,0
27.05.2017 17:00:00 28,4 19,1 40,1 17,7 15,0 9 5 21 11 O 1013,0 19 60 0,0
27.05.2017 16:00:00 28,8 18,9 41,1 17,6 15,0 6 3 19 10 ONO 1013,3 19 60 0,0
27.05.2017 15:00:00 28,3 20,1 40,9 17,5 15,0 8 5 18 10 NNO 1013,5 19 60 0,0
27.05.2017 14:00:00 27,4 19,5 40,2 17,7 15,0 4 2 14 7 NNW 1014,0 20 60 0,0
27.05.2017 13:00:00 25,9 17,5 39,4 17,5 15,0 5 3 14 7 NW 1014,4 20 60 0,0
27.05.2017 12:00:00 25,4 16,5 36,6 17,3 15,0 4 2 11 6 ONO 1014,6 17 60 0,0
27.05.2017 11:00:00 24,0 15,0 28,3 17,3 15,0 3 2 9 5 NO 1014,6 20 58 0,0
27.05.2017 10:00:00 21,7 15,3 20,8 17,7 14,9 5 3 20 11 O 1014,7 20 58 0,0
27.05.2017 09:00:00 19,1 14,1 18,2 17,8 14,9 13 7 27 15 OZO 1014,9 20 58 0,0
27.05.2017 08:00:00 17,3 13,4 14,9 17,9 14,9 11 6 21 12 ZO 1014,8 20 31 0,0
27.05.2017 07:00:00 16,1 12,8 14,2 18,1 14,9 14 8 34 18 ZO 1015,1 20 0 0,0
27.05.2017 06:00:00 16,6 12,9 14,2 18,1 14,9 15 8 26 14 ZO 1015,5 20 0 0,0
27.05.2017 05:00:00 15,6 13,4 12,7 18,3 14,9 14 7 22 12 ZO 1016,4 20 0 0,0
27.05.2017 04:00:00 14,9 13,4 12,6 18,3 14,8 6 3 14 8 OZO 1017,4 19 0 0,0
27.05.2017 03:00:00 15,4 13,6 12,0 18,3 14,9 8 4 11 6 ZO 1018,5 16 0 0,0
27.05.2017 02:00:00 16,4 13,3 12,8 18,4 14,9 4 2 27 14 NO 1019,0 19 0 0,0
27.05.2017 01:00:00 17,5 14,2 15,6 18,4 14,9 22 12 58 31 NW 1018,1 18 0 0,0
27.05.2017 00:00:00 17,2 15,4 13,7 18,5 14,9 23 13 39 21 WNW 1016,4 20 0 0,0
26.05.2017 23:00:00 18,4 14,9 16,3 18,6 14,9 14 7 28 15 OZO 1013,3 20 0 0,0
26.05.2017 22:00:00 19,2 15,3 17,2 18,5 14,8 10 6 22 12 OZO 1013,0 20 0 0,0
26.05.2017 21:00:00 20,6 15,4 19,0 18,5 14,8 10 6 31 17 OZO 1012,6 20 18 0,0
26.05.2017 20:00:00 21,3 15,4 20,4 18,4 14,8 16 9 34 18 ZO 1011,5 20 14 0,0
26.05.2017 19:00:00 24,0 14,4 20,8 18,1 14,8 16 9 34 19 ZZO 1011,9 20 26 0,0
26.05.2017 18:00:00 21,7 13,6 19,5 18,2 14,8 11 6 33 18 ZO 1012,9 20 0 0,0
26.05.2017 17:00:00 20,3 14,4 19,7 17,9 14,8 19 10 35 19 ZO 1013,2 6 0 0,0
26.05.2017 16:00:00 24,8 19,0 23,4 17,8 14,8 4 2 11 6 NW 1011,8 20 0 0,0
26.05.2017 15:00:00 27,5 17,7 31,3 17,8 14,8 6 3 23 13 ONO 1010,8 20 37 0,0
26.05.2017 14:00:00 28,8 18,9 33,6 17,7 14,8 9 5 17 9 NO 1010,6 20 54 0,0
26.05.2017 13:00:00 27,8 17,9 39,7 17,2 14,8 11 6 18 10 O 1010,9 20 60 0,0
26.05.2017 12:00:00 27,7 17,5 38,3 17,5 14,7 5 3 17 9 O 1011,4 18 60 0,0
26.05.2017 11:00:00 26,1 16,9 30,1 17,6 14,7 6 3 16 9 O 1011,6 20 60 0,0
26.05.2017 10:00:00 23,8 15,8 24,1 17,7 14,7 10 5 22 12 OZO 1012,1 20 52 0,0
26.05.2017 09:00:00 23,0 15,6 20,1 17,6 14,7 12 6 22 12 ZO 1012,4 20 60 0,0
26.05.2017 08:00:00 19,0 14,9 17,2 17,9 14,8 5 3 16 9 OZO 1013,5 20 43 0,0
26.05.2017 07:00:00 17,7 14,0 15,0 17,9 14,7 6 3 17 9 OZO 1014,0 20 14 0,0
26.05.2017 06:00:00 16,5 13,8 13,5 18,0 14,7 9 5 15 8 ZO 1014,3 20 0 0,0
26.05.2017 05:00:00 17,5 13,2 14,7 18,1 14,7 8 4 52 28 NNO 1014,4 20 0 0,0
26.05.2017 04:00:00 17,6 13,3 13,6 18,1 14,7 5 3 14 8 ZZO 1013,1 20 0 0,0
26.05.2017 03:00:00 16,1 13,4 13,2 18,1 14,7 4 2 14 8 ZZO 1013,5 20 0 0,0
26.05.2017 02:00:00 18,0 13,1 14,9 18,1 14,7 8 4 17 9 Z 1013,4 20 0 0,0
26.05.2017 01:00:00 18,4 13,7 13,8 18,1 14,7 10 5 25 14 ZZO 1013,5 20 0 0,0
26.05.2017 00:00:00 19,3 14,8 13,5 18,2 14,7 14 8 22 12 ZZO 1013,2 20 0 0,0
25.05.2017 23:00:00 19,4 14,9 15,1 18,0 14,7 0 0 6 3 N 1013,3 20 0 0,0
25.05.2017 22:00:00 21,5 15,6 17,4 17,9 14,7 0 0 9 5 N 1012,5 20 0 0,0
25.05.2017 21:00:00 23,8 16,3 21,6 17,8 14,7 5 3 11 6 WZW 1011,9 20 58 0,0
25.05.2017 20:00:00 28,5 12,8 28,1 17,7 14,6 5 3 16 8 NO 1011,1 20 60 0,0
25.05.2017 19:00:00 29,4 13,6 31,6 17,4 14,7 5 3 16 9 NNO 1011,1 20 60 0,0
25.05.2017 18:00:00 30,0 11,5 37,7 17,4 14,7 6 4 16 8 NO 1011,2 18 60 0,0
25.05.2017 17:00:00 29,8 10,8 41,2 16,9 14,7 8 4 16 9 NO 1011,6 20 60 0,0
25.05.2017 16:00:00 - - - - - - - - - - - - - -
25.05.2017 15:00:00 - - - - - - - - - - - - - -
25.05.2017 14:00:00 - - - - - - - - - - - - - -
25.05.2017 13:00:00 - - - - - - - - - - - - - -
25.05.2017 12:00:00 - - - - - - - - - - - - - -
25.05.2017 11:00:00 - - - - - - - - - - - - - -
25.05.2017 10:00:00 - - - - - - - - - - - - - -
25.05.2017 09:00:00 - - - - - - - - - - - - - -
25.05.2017 08:00:00 - - - - - - - - - - - - - -
25.05.2017 07:00:00 - - - - - - - - - - - - - -
25.05.2017 06:00:00 - - - - - - - - - - - - - -
25.05.2017 05:00:00 - - - - - - - - - - - - - -
25.05.2017 04:00:00 - - - - - - - - - - - - - -
25.05.2017 03:00:00 - - - - - - - - - - - - - -
25.05.2017 02:00:00 - - - - - - - - - - - - - -
25.05.2017 01:00:00 - - - - - - - - - - - - - -
25.05.2017 00:00:00 - - - - - - - - - - - - - -
24.05.2017 23:00:00 - - - - - - - - - - - - - -
24.05.2017 22:00:00 - - - - - - - - - - - - - -
24.05.2017 21:00:00 - - - - - - - - - - - - - -
24.05.2017 20:00:00 - - - - - - - - - - - - - -
24.05.2017 19:00:00 - - - - - - - - - - - - - -
24.05.2017 18:00:00 - - - - - - - - - - - - - -
24.05.2017 17:00:00 - - - - - - - - - - - - - -
24.05.2017 16:00:00 - - - - - - - - - - - - - -
24.05.2017 15:00:00 25,5 16,6 37,3 15,8 14,6 10 6 19 11 N 1019,2 18 60 0,0
24.05.2017 14:00:00 25,1 16,5 36,4 15,8 14,6 9 5 16 9 N 1019,6 18 60 0,0
24.05.2017 13:00:00 24,2 17,4 37,2 15,7 14,6 7 4 16 8 NNW 1020,1 20 60 0,0
24.05.2017 12:00:00 22,6 13,9 34,1 15,8 14,6 3 2 8 5 W 1020,8 20 60 0,0
24.05.2017 11:00:00 20,6 14,5 26,7 15,7 14,6 2 1 9 5 Z 1021,4 20 60 0,0
24.05.2017 10:00:00 17,9 13,6 18,5 16,0 14,6 0 0 8 4 N 1022,3 20 60 0,0
24.05.2017 09:00:00 15,1 12,8 15,0 16,0 14,6 2 1 7 4 WZW 1022,9 20 60 0,0
24.05.2017 08:00:00 13,3 12,0 8,2 16,2 14,6 5 3 17 9 Z 1023,0 20 60 0,0
24.05.2017 07:00:00 9,5 9,0 5,6 16,3 14,6 6 3 13 7 Z 1023,6 3,2 13 0,0
24.05.2017 06:00:00 10,2 9,7 4,9 16,4 14,6 4 2 20 11 Z 1023,4 20 0 0,0
24.05.2017 05:00:00 8,9 8,6 4,5 16,5 14,6 0 0 4 2 N 1023,8 1,3 0 0,0
24.05.2017 04:00:00 10,0 9,8 5,0 16,5 14,6 4 2 6 3 WNW 1024,1 0,8 0 0,0
24.05.2017 03:00:00 9,5 9,4 5,9 16,6 14,6 3 1 4 2 W 1024,4 0,2 0 0,0
24.05.2017 02:00:00 10,0 9,7 6,2 16,6 14,6 4 2 6 3 W 1025,1 0,2 0 0,0
24.05.2017 01:00:00 11,0 10,5 6,9 16,6 14,6 2 1 11 6 OZO 1025,3 10 0 0,0
24.05.2017 00:00:00 11,1 10,6 7,3 16,6 14,6 7 4 8 5 ZZO 1025,4 7 0 0,0
23.05.2017 23:00:00 12,0 11,4 7,6 16,7 14,5 0 0 5 3 N 1025,1 2,6 0 0,0
23.05.2017 22:00:00 13,4 12,6 9,5 16,6 14,6 4 2 6 4 Z 1024,2 15 0 0,0
23.05.2017 21:00:00 15,9 13,0 13,9 16,5 14,6 4 2 10 5 ZZW 1023,5 20 28 0,0
23.05.2017 20:00:00 16,9 13,4 18,5 16,4 14,5 0 0 12 7 N 1023,4 20 0 0,0
23.05.2017 19:00:00 16,7 13,4 19,2 16,4 14,5 5 3 15 8 NW 1023,5 19 0 0,0
23.05.2017 18:00:00 16,9 13,2 21,7 16,4 14,5 8 4 15 8 WNW 1023,4 20 0 0,0
23.05.2017 17:00:00 17,3 13,2 21,8 16,4 14,5 4 2 11 6 N 1023,4 19 0 0,0
23.05.2017 16:00:00 16,4 13,3 19,7 16,4 14,5 3 2 11 6 N 1024,0 20 0 0,0
23.05.2017 15:00:00 16,0 12,9 18,7 16,4 14,5 2 1 9 5 O 1024,3 20 0 0,0
23.05.2017 14:00:00 15,1 13,0 17,5 16,4 14,5 4 2 10 6 NNO 1024,8 20 0 0,0
23.05.2017 13:00:00 14,4 12,8 16,2 16,4 14,5 5 3 12 6 NNW 1025,1 20 0 0,0
23.05.2017 12:00:00 13,7 12,4 15,4 16,5 14,5 9 5 14 8 NW 1025,3 18 0 0,0
23.05.2017 11:00:00 13,6 12,5 15,1 16,4 14,5 6 4 11 6 NNW 1025,0 19 0 0,0
23.05.2017 10:00:00 12,9 12,6 14,0 16,4 14,5 7 4 13 7 NNW 1025,0 6 0 0,2
23.05.2017 09:00:00 12,5 12,2 13,1 16,6 14,5 6 3 9 5 NNW 1024,6 2,4 0 0,0
23.05.2017 08:00:00 12,4 12,1 12,8 16,6 14,5 5 3 9 5 NNW 1024,2 2,6 0 0,0
23.05.2017 07:00:00 12,4 12,1 12,6 16,6 14,5 4 2 13 7 NW 1023,9 3,2 0 0,0
23.05.2017 06:00:00 12,6 12,3 12,7 16,7 14,5 8 4 17 9 NNW 1023,5 2,8 0 0,2
23.05.2017 05:00:00 13,2 12,9 13,4 16,8 14,5 10 6 16 8 NW 1023,0 1,5 0 0,2
23.05.2017 04:00:00 14,0 13,7 - - - 5 3 11 6 N 1022,3 1,7 - 0,0
23.05.2017 03:00:00 14,0 13,7 10,6 16,8 14,5 5 3 9 5 NW 1021,8 4,6 0 0,0
23.05.2017 02:00:00 12,9 12,4 9,7 16,9 14,5 5 3 9 5 W 1021,6 3,4 0 0,0
23.05.2017 01:00:00 14,0 13,4 11,7 17,0 14,5 0 0 10 5 N 1021,3 11 0 0,0
23.05.2017 00:00:00 16,0 13,7 13,3 17,0 14,5 5 3 16 9 Z 1021,1 20 0 0,0
22.05.2017 23:00:00 15,6 14,1 15,0 17,0 14,5 12 7 17 9 ZZO 1021,5 20 0 0,0
22.05.2017 22:00:00 15,7 14,1 15,1 17,1 14,4 2 1 22 12 NNO 1020,8 20 0 0,0
22.05.2017 21:00:00 15,8 13,5 14,2 17,0 14,5 9 5 42 23 Z 1019,4 20 0 0,0
22.05.2017 20:00:00 15,0 13,4 14,3 17,0 14,5 25 13 35 19 ZZO 1019,4 20 0 3,7
22.05.2017 19:00:00 16,0 14,7 13,3 17,0 14,5 18 10 56 30 ZZO 1019,2 11 0 13,6
22.05.2017 18:00:00 21,0 16,4 18,6 16,6 14,4 10 5 20 11 ZZW 1016,1 16 0 0,6
22.05.2017 17:00:00 24,6 15,5 25,4 16,5 14,5 7 4 18 10 N 1015,2 20 15 0,0
22.05.2017 16:00:00 26,5 14,3 33,5 16,3 14,5 9 5 21 11 N 1015,3 19 51 0,0
22.05.2017 15:00:00 25,4 14,5 24,8 16,2 14,5 6 3 19 10 W 1015,4 20 29 0,0
22.05.2017 14:00:00 24,0 14,4 - - - 13 7 26 14 WNW 1015,5 19 - -
22.05.2017 13:00:00 24,3 12,6 29,2 16,2 14,5 10 6 17 9 NW 1015,4 20 44 0,0
22.05.2017 12:00:00 25,0 13,2 33,7 16,0 14,4 8 4 19 10 NNW 1014,9 20 60 0,0
22.05.2017 11:00:00 22,9 15,2 27,7 16,1 14,4 6 3 15 8 WNW 1015,1 19 55 0,0
22.05.2017 10:00:00 20,5 13,7 17,7 16,1 14,5 8 5 15 8 ZO 1015,6 20 54 0,0
22.05.2017 09:00:00 15,0 11,4 11,4 16,3 14,5 7 4 39 21 ZO 1016,9 20 15 0,2
22.05.2017 08:00:00 13,5 9,7 8,4 16,3 14,5 18 10 48 26 NW 1017,4 19 46 0,0
22.05.2017 07:00:00 10,3 8,1 7,1 16,5 14,5 3 1 9 5 Z 1015,0 20 0 0,0
22.05.2017 06:00:00 11,8 8,1 8,2 16,5 14,5 4 2 22 12 ZW 1014,1 20 0 0,0

tt = temperatuur
td = dauwpunt
tt 5cm = temperatuur 5cm
tt -20cm = temperatuur -20cm
tt -100cm = temperatuur -100cm
ff = windsnelheid
fx = windstoten
dd = windrichting
ppp = luchtdruk
vv = zicht
sd = Zonneschijnduur
rr = neerslag

Weerstations in de omgeving